,,,PA_Meas_PMT16A,,PR_Meas_QMR101_102,,RH_Meas_QMH101,,SR_Meas_QMS101,,TA_Meas_QMH101,,GenWind,,GenWind,
date,time,status,PA,status,PR,status,RH,status,SR,status,TA,status,DirAvg,status,SpdAvg,
2011-06-13, 00:00:04,VALID,1004.21,VALID,0,INVALID,163.647,VALID,0,VALID,25.3584,VALID,300,VALID,0,
2011-06-13, 00:01:05,VALID,1004.23,VALID,0,INVALID,163.655,VALID,0,VALID,25.339,VALID,273,VALID,0,
2011-06-13, 00:02:05,VALID,1004.19,VALID,0,INVALID,163.647,VALID,0,VALID,25.3,VALID,359,VALID,0,
2011-06-13, 00:03:05,VALID,1004.19,VALID,0,INVALID,163.655,VALID,0,VALID,25.2592,VALID,319,VALID,0,
2011-06-13, 00:04:05,VALID,1004.19,VALID,0,INVALID,163.655,VALID,0,VALID,25.2611,VALID,274,VALID,0,
2011-06-13, 00:05:05,VALID,1004.22,VALID,0,INVALID,163.685,VALID,0,VALID,25.2397,VALID,297,VALID,0,
2011-06-13, 00:06:05,VALID,1004.2,VALID,0,INVALID,163.647,VALID,0,VALID,25.2007,VALID,292,VALID,0,
2011-06-13, 00:07:05,VALID,1004.18,VALID,0,INVALID,163.662,VALID,0,VALID,25.1813,VALID,291,VALID,0,
2011-06-13, 00:08:05,VALID,1004.17,VALID,0,INVALID,163.67,VALID,0,VALID,25.1832,VALID,283,VALID,0,
2011-06-13, 00:09:05,VALID,1004.15,VALID,0,INVALID,163.67,VALID,0,VALID,25.1637,VALID,300,VALID,0,
2011-06-13, 00:10:05,VALID,1004.2,VALID,0,INVALID,163.685,VALID,0,VALID,25.1637,VALID,296,VALID,0,
2011-06-13, 00:11:05,VALID,1004.14,VALID,0,INVALID,163.662,VALID,0,VALID,25.1832,VALID,286,VALID,0,
2011-06-13, 00:12:05,VALID,1004.16,VALID,0,INVALID,163.662,VALID,0,VALID,25.2007,VALID,338,VALID,0,
2011-06-13, 00:13:05,VALID,1004.14,VALID,0,INVALID,163.678,VALID,0,VALID,25.2435,VALID,289,VALID,0,
2011-06-13, 00:14:05,VALID,1004.14,VALID,0,INVALID,163.662,VALID,0,VALID,25.2221,VALID,295,VALID,0,
2011-06-13, 00:15:05,VALID,1004.13,VALID,0,INVALID,163.67,VALID,0,VALID,25.2221,VALID,294,VALID,0,
2011-06-13, 00:16:05,VALID,1004.1,VALID,0,INVALID,163.67,VALID,0,VALID,25.2416,VALID,339,VALID,0,
2011-06-13, 00:17:05,VALID,1004.11,VALID,0,INVALID,163.685,VALID,0,VALID,25.2611,VALID,297,VALID,0,
2011-06-13, 00:18:05,VALID,1004.1,VALID,0,INVALID,163.655,VALID,0,VALID,25.2221,VALID,294,VALID,0,
2011-06-13, 00:19:05,VALID,1004.07,VALID,0,INVALID,163.655,VALID,0,VALID,25.2221,VALID,322,VALID,0,
2011-06-13, 00:20:05,VALID,1004.08,VALID,0,INVALID,163.678,VALID,0,VALID,25.2046,VALID,295,VALID,0,
2011-06-13, 00:21:05,VALID,1004.07,VALID,0,INVALID,163.67,VALID,0,VALID,25.1442,VALID,335,VALID,0,
2011-06-13, 00:22:05,VALID,1004.08,VALID,0,INVALID,163.647,VALID,0,VALID,25.1248,VALID,344,VALID,0,
2011-06-13, 00:23:05,VALID,1004.09,VALID,0,INVALID,163.662,VALID,0,VALID,25.0858,VALID,357,VALID,0,
2011-06-13, 00:24:05,VALID,1004.09,VALID,0,INVALID,163.708,VALID,0,VALID,25.0663,VALID,356,VALID,0,
2011-06-13, 00:25:05,VALID,1004.12,VALID,0,INVALID,163.685,VALID,0,VALID,25.0469,VALID,343,VALID,0,
2011-06-13, 00:26:05,VALID,1004.1,VALID,0,INVALID,163.655,VALID,0,VALID,25.0079,VALID,328,VALID,0,
2011-06-13, 00:27:05,VALID,1004.09,VALID,0,INVALID,163.678,VALID,0,VALID,25.0079,VALID,332,VALID,0,
2011-06-13, 00:28:05,VALID,1004.13,VALID,0,INVALID,163.67,VALID,0,VALID,24.969,VALID,297,VALID,0,
2011-06-13, 00:29:05,VALID,1004.13,VALID,0,INVALID,163.678,VALID,0,VALID,24.9885,VALID,322,VALID,0,
2011-06-13, 00:30:05,VALID,1004.11,VALID,0,INVALID,163.678,VALID,0,VALID,25.0079,VALID,283,VALID,0,
2011-06-13, 00:31:05,VALID,1004.12,VALID,0,INVALID,163.701,VALID,0,VALID,25.0274,VALID,284,VALID,0,
2011-06-13, 00:32:05,VALID,1004.15,VALID,0,INVALID,163.678,VALID,0,VALID,25.0469,VALID,284,VALID,0,
2011-06-13, 00:33:05,VALID,1004.16,VALID,0,INVALID,163.67,VALID,0,VALID,25.0469,VALID,277,VALID,0,
2011-06-13, 00:34:05,VALID,1004.15,VALID,0,INVALID,163.662,VALID,0,VALID,25.0858,VALID,316,VALID,0,
2011-06-13, 00:35:05,VALID,1004.17,VALID,0,INVALID,163.678,VALID,0,VALID,25.1637,VALID,297,VALID,0,
2011-06-13, 00:36:05,VALID,1004.17,VALID,0,INVALID,163.662,VALID,0,VALID,25.2221,VALID,284,VALID,0,
2011-06-13, 00:37:05,VALID,1004.14,VALID,0,INVALID,163.655,VALID,0,VALID,25.2202,VALID,295,VALID,0,
2011-06-13, 00:38:05,VALID,1004.14,VALID,0,INVALID,163.701,VALID,0,VALID,25.2806,VALID,291,VALID,0,
2011-06-13, 00:39:05,VALID,1004.17,VALID,0,INVALID,163.662,VALID,0,VALID,25.3195,VALID,308,VALID,0,
2011-06-13, 00:40:05,VALID,1004.16,VALID,0,INVALID,163.662,VALID,0,VALID,25.339,VALID,301,VALID,0,
2011-06-13, 00:41:05,VALID,1004.16,VALID,0,INVALID,163.647,VALID,0,VALID,25.3779,VALID,289,VALID,0,
2011-06-13, 00:42:05,VALID,1004.13,VALID,0,INVALID,163.662,VALID,0,VALID,25.3955,VALID,291,VALID,0,
2011-06-13, 00:43:05,VALID,1004.17,VALID,0,INVALID,163.639,VALID,0,VALID,25.4558,VALID,259,VALID,0,
2011-06-13, 00:44:05,VALID,1004.12,VALID,0,INVALID,163.655,VALID,0,VALID,25.4734,VALID,252,VALID,0,
2011-06-13, 00:45:05,VALID,1004.17,VALID,0,INVALID,163.662,VALID,0,VALID,25.4928,VALID,272,VALID,0,
2011-06-13, 00:46:05,VALID,1004.17,VALID,0,INVALID,163.632,VALID,0,VALID,25.5142,VALID,300,VALID,0,
2011-06-13, 00:47:05,VALID,1004.16,VALID,0,INVALID,163.67,VALID,0,VALID,25.5142,VALID,291,VALID,0,
2011-06-13, 00:48:05,VALID,1004.14,VALID,0,INVALID,163.655,VALID,0,VALID,25.5337,VALID,257,VALID,0,
2011-06-13, 00:49:05,VALID,1004.14,VALID,0,INVALID,163.639,VALID,0,VALID,25.5513,VALID,273,VALID,0,
2011-06-13, 00:50:05,VALID,1004.14,VALID,0,INVALID,163.639,VALID,0,VALID,25.5921,VALID,287,VALID,0,
2011-06-13, 00:51:05,VALID,1004.16,VALID,0,INVALID,163.639,VALID,0,VALID,25.5902,VALID,283,VALID,0,
2011-06-13, 00:52:05,VALID,1004.13,VALID,0,INVALID,163.624,VALID,0,VALID,25.6116,VALID,332,VALID,0,
2011-06-13, 00:53:05,VALID,1004.14,VALID,0,INVALID,163.624,VALID,0,VALID,25.6311,VALID,282,VALID,0,
2011-06-13, 00:54:05,VALID,1004.09,VALID,0,INVALID,163.632,VALID,0,VALID,25.6506,VALID,268,VALID,0,
2011-06-13, 00:55:05,VALID,1004.08,VALID,0,INVALID,163.624,VALID,0,VALID,25.67,VALID,231,VALID,0,
2011-06-13, 00:56:05,VALID,1004.09,VALID,0,INVALID,163.624,VALID,0,VALID,25.67,VALID,219,VALID,0,
2011-06-13, 00:57:05,VALID,1004.06,VALID,0,INVALID,163.601,VALID,0,VALID,25.6311,VALID,225,VALID,0,
2011-06-13, 00:58:05,VALID,1004.05,VALID,0,INVALID,163.655,VALID,0,VALID,25.6116,VALID,264,VALID,0,
2011-06-13, 00:59:05,VALID,1004.03,VALID,0,INVALID,163.624,VALID,0,VALID,25.5902,VALID,301,VALID,0,
2011-06-13, 01:00:05,VALID,1004.01,VALID,0,INVALID,163.639,VALID,0,VALID,25.6136,VALID,301,VALID,0,
2011-06-13, 01:01:05,VALID,1004.01,VALID,0,INVALID,163.632,VALID,0,VALID,25.5921,VALID,301,VALID,0,
2011-06-13, 01:02:05,VALID,1004.02,VALID,0,INVALID,163.639,VALID,0,VALID,25.5941,VALID,289,VALID,0,
2011-06-13, 01:03:05,VALID,1003.99,VALID,0,INVALID,163.655,VALID,0,VALID,25.5921,VALID,304,VALID,0,
2011-06-13, 01:04:05,VALID,1003.96,VALID,0,INVALID,163.662,VALID,0,VALID,25.5318,VALID,294,VALID,0,
2011-06-13, 01:05:05,VALID,1003.95,VALID,0,INVALID,163.617,VALID,0,VALID,25.5532,VALID,286,VALID,0,
2011-06-13, 01:06:05,VALID,1003.95,VALID,0,INVALID,163.678,VALID,0,VALID,25.5727,VALID,303,VALID,0,
2011-06-13, 01:07:05,VALID,1003.92,VALID,0,INVALID,163.662,VALID,0,VALID,25.5921,VALID,297,VALID,0,
2011-06-13, 01:08:05,VALID,1003.92,VALID,0,INVALID,163.655,VALID,0,VALID,25.5318,VALID,300,VALID,0,
2011-06-13, 01:09:05,VALID,1003.89,VALID,0,INVALID,163.639,VALID,0,VALID,25.5142,VALID,308,VALID,0,
2011-06-13, 01:10:05,VALID,1003.88,VALID,0,INVALID,163.632,VALID,0,VALID,25.5162,VALID,298,VALID,0,
2011-06-13, 01:11:05,VALID,1003.89,VALID,0,INVALID,163.639,VALID,0,VALID,25.4948,VALID,302,VALID,0,
2011-06-13, 01:12:05,VALID,1003.89,VALID,0,INVALID,163.655,VALID,0,VALID,25.4753,VALID,288,VALID,0,
2011-06-13, 01:13:05,VALID,1003.82,VALID,0,INVALID,163.639,VALID,0,VALID,25.4344,VALID,311,VALID,0,
2011-06-13, 01:14:05,VALID,1003.84,VALID,0,INVALID,163.647,VALID,0,VALID,25.3955,VALID,292,VALID,0,
2011-06-13, 01:15:05,VALID,1003.81,VALID,0,INVALID,163.647,VALID,0,VALID,25.3779,VALID,316,VALID,0,
2011-06-13, 01:16:05,VALID,1003.81,VALID,0,INVALID,163.655,VALID,0,VALID,25.339,VALID,303,VALID,0,
2011-06-13, 01:17:05,VALID,1003.79,VALID,0,INVALID,163.655,VALID,0,VALID,25.3195,VALID,285,VALID,0,
2011-06-13, 01:18:05,VALID,1003.75,VALID,0,INVALID,163.655,VALID,0,VALID,25.2806,VALID,289,VALID,0,
2011-06-13, 01:19:05,VALID,1003.76,VALID,0,INVALID,163.647,VALID,0,VALID,25.2806,VALID,293,VALID,0,
2011-06-13, 01:20:05,VALID,1003.73,VALID,0,INVALID,163.685,VALID,0,VALID,25.2397,VALID,309,VALID,0,
2011-06-13, 01:21:05,VALID,1003.72,VALID,0,INVALID,163.693,VALID,0,VALID,25.2806,VALID,278,VALID,0,
2011-06-13, 01:22:05,VALID,1003.68,VALID,0,INVALID,163.678,VALID,0,VALID,25.2592,VALID,298,VALID,0,
2011-06-13, 01:23:05,VALID,1003.68,VALID,0,INVALID,163.639,VALID,0,VALID,25.2592,VALID,297,VALID,0,
2011-06-13, 01:24:05,VALID,1003.64,VALID,0,INVALID,163.67,VALID,0,VALID,25.2806,VALID,289,VALID,0,
2011-06-13, 01:25:05,VALID,1003.62,VALID,0,INVALID,163.639,VALID,0,VALID,25.2592,VALID,305,VALID,0,
2011-06-13, 01:26:05,VALID,1003.6,VALID,0,INVALID,163.67,VALID,0,VALID,25.2611,VALID,283,VALID,0,
2011-06-13, 01:27:05,VALID,1003.58,VALID,0,INVALID,163.678,VALID,0,VALID,25.2416,VALID,287,VALID,0,
2011-06-13, 01:28:05,VALID,1003.57,VALID,0,INVALID,163.678,VALID,0,VALID,25.2397,VALID,293,VALID,0,
2011-06-13, 01:29:05,VALID,1003.56,VALID,0,INVALID,163.685,VALID,0,VALID,25.2007,VALID,281,VALID,0,
2011-06-13, 01:30:05,VALID,1003.55,VALID,0,INVALID,163.662,VALID,0,VALID,25.2007,VALID,333,VALID,0,
2011-06-13, 01:31:05,VALID,1003.54,VALID,0,INVALID,163.662,VALID,0,VALID,25.1832,VALID,306,VALID,0,
2011-06-13, 01:32:05,VALID,1003.53,VALID,0,INVALID,163.662,VALID,0,VALID,25.2221,VALID,317,VALID,0,
2011-06-13, 01:33:05,VALID,1003.54,VALID,0,INVALID,163.662,VALID,0,VALID,25.2221,VALID,303,VALID,0,
2011-06-13, 01:34:05,VALID,1003.55,VALID,0,INVALID,163.655,VALID,0,VALID,25.2416,VALID,307,VALID,0,
2011-06-13, 01:35:05,VALID,1003.56,VALID,0,INVALID,163.67,VALID,0,VALID,25.2592,VALID,275,VALID,0,
2011-06-13, 01:36:05,VALID,1003.56,VALID,0,INVALID,163.647,VALID,0,VALID,25.2786,VALID,315,VALID,0,
2011-06-13, 01:37:05,VALID,1003.54,VALID,0,INVALID,163.678,VALID,0,VALID,25.3,VALID,263,VALID,0,
2011-06-13, 01:38:05,VALID,1003.54,VALID,0,INVALID,163.67,VALID,0,VALID,25.2786,VALID,291,VALID,0,
2011-06-13, 01:39:05,VALID,1003.53,VALID,0,INVALID,163.624,VALID,0,VALID,25.2981,VALID,270,VALID,0,
2011-06-13, 01:40:05,VALID,1003.5,VALID,0,INVALID,163.655,VALID,0,VALID,25.2806,VALID,296,VALID,0,
2011-06-13, 01:41:05,VALID,1003.51,VALID,0,INVALID,163.678,VALID,0,VALID,25.3,VALID,300,VALID,0,
2011-06-13, 01:42:05,VALID,1003.53,VALID,0,INVALID,163.67,VALID,0,VALID,25.2592,VALID,285,VALID,0,
2011-06-13, 01:43:05,VALID,1003.47,VALID,0,INVALID,163.655,VALID,0,VALID,25.2416,VALID,326,VALID,0,
2011-06-13, 01:44:05,VALID,1003.51,VALID,0,INVALID,163.67,VALID,0,VALID,25.2416,VALID,296,VALID,0,
2011-06-13, 01:45:05,VALID,1003.48,VALID,0,INVALID,163.655,VALID,0,VALID,25.2221,VALID,356,VALID,0,
2011-06-13, 01:46:05,VALID,1003.47,VALID,0,INVALID,163.639,VALID,0,VALID,25.2027,VALID,348,VALID,0,
2011-06-13, 01:47:05,VALID,1003.45,VALID,0,INVALID,163.685,VALID,0,VALID,25.1618,VALID,261,VALID,0,
2011-06-13, 01:48:05,VALID,1003.44,VALID,0,INVALID,163.678,VALID,0,VALID,25.1423,VALID,334,VALID,0,
2011-06-13, 01:49:05,VALID,1003.44,VALID,0,INVALID,163.678,VALID,0,VALID,25.1034,VALID,334,VALID,0,
2011-06-13, 01:50:05,VALID,1003.39,VALID,0,INVALID,163.693,VALID,0,VALID,25.0858,VALID,354,VALID,0,
2011-06-13, 01:51:05,VALID,1003.38,VALID,0,INVALID,163.701,VALID,0,VALID,25.045,VALID,356,VALID,0,
2011-06-13, 01:52:05,VALID,1003.36,VALID,0,INVALID,163.678,VALID,0,VALID,25.0274,VALID,342,VALID,0,
2011-06-13, 01:53:05,VALID,1003.39,VALID,0,INVALID,163.685,VALID,0,VALID,25.0274,VALID,357,VALID,0,
2011-06-13, 01:54:05,VALID,1003.37,VALID,0,INVALID,163.685,VALID,0,VALID,25.0079,VALID,336,VALID,0,
2011-06-13, 01:55:05,VALID,1003.35,VALID,0,INVALID,163.685,VALID,0,VALID,24.9866,VALID,336,VALID,0,
2011-06-13, 01:56:05,VALID,1003.34,VALID,0,INVALID,163.678,VALID,0,VALID,24.9885,VALID,336,VALID,0,
2011-06-13, 01:57:05,VALID,1003.32,VALID,0,INVALID,163.693,VALID,0,VALID,24.9476,VALID,336,VALID,0,
2011-06-13, 01:58:05,VALID,1003.34,VALID,0,INVALID,163.678,VALID,0,VALID,24.969,VALID,335,VALID,0,
2011-06-13, 01:59:05,VALID,1003.31,VALID,0,INVALID,163.693,VALID,0,VALID,24.9476,VALID,335,VALID,0,
2011-06-13, 02:00:05,VALID,1003.32,VALID,0,INVALID,163.701,VALID,0,VALID,24.969,VALID,324,VALID,0,
2011-06-13, 02:01:05,VALID,1003.32,VALID,0,INVALID,163.678,VALID,0,VALID,24.969,VALID,245,VALID,0,
2011-06-13, 02:02:05,VALID,1003.3,VALID,0,INVALID,163.678,VALID,0,VALID,24.9476,VALID,291,VALID,0,
2011-06-13, 02:03:05,VALID,1003.28,VALID,0,INVALID,163.67,VALID,0,VALID,24.969,VALID,337,VALID,0,
2011-06-13, 02:04:05,VALID,1003.28,VALID,0,INVALID,163.678,VALID,0,VALID,24.969,VALID,339,VALID,0,
2011-06-13, 02:05:05,VALID,1003.23,VALID,0,INVALID,163.685,VALID,0,VALID,24.969,VALID,1,VALID,0,
2011-06-13, 02:06:05,VALID,1003.25,VALID,0,INVALID,163.693,VALID,0,VALID,25.0079,VALID,19,VALID,0,
2011-06-13, 02:07:05,VALID,1003.23,VALID,0,INVALID,163.693,VALID,0,VALID,25.0079,VALID,2,VALID,0,
2011-06-13, 02:08:05,VALID,1003.23,VALID,0,INVALID,163.662,VALID,0,VALID,25.0079,VALID,338,VALID,0,
2011-06-13, 02:09:05,VALID,1003.24,VALID,0,INVALID,163.67,VALID,0,VALID,25.0274,VALID,303,VALID,0,
2011-06-13, 02:10:05,VALID,1003.26,VALID,0,INVALID,163.662,VALID,0,VALID,25.0469,VALID,233,VALID,0,
2011-06-13, 02:11:05,VALID,1003.21,VALID,0,INVALID,163.678,VALID,0,VALID,25.1053,VALID,288,VALID,0,
2011-06-13, 02:12:05,VALID,1003.23,VALID,0,INVALID,163.655,VALID,0,VALID,25.1851,VALID,242,VALID,0,
2011-06-13, 02:13:05,VALID,1003.21,VALID,0,INVALID,163.662,VALID,0,VALID,25.2202,VALID,239,VALID,0,
2011-06-13, 02:14:05,VALID,1003.19,VALID,0,INVALID,163.639,VALID,0,VALID,25.3,VALID,211,VALID,0,
2011-06-13, 02:15:05,VALID,1003.15,VALID,0,INVALID,163.632,VALID,0,VALID,25.3565,VALID,159,VALID,0,
2011-06-13, 02:16:05,VALID,1003.12,VALID,0,INVALID,163.655,VALID,0.100563,VALID,25.4363,VALID,245,VALID,0,
2011-06-13, 02:17:05,VALID,1003.15,VALID,0,INVALID,163.632,VALID,0,VALID,25.5727,VALID,254,VALID,0,
2011-06-13, 02:18:05,VALID,1003.08,VALID,0,INVALID,163.639,VALID,0,VALID,25.67,VALID,240,VALID,0,
2011-06-13, 02:19:05,VALID,1003.1,VALID,0,INVALID,163.609,VALID,0,VALID,25.748,VALID,259,VALID,0,
2011-06-13, 02:20:05,VALID,1003.05,VALID,0,INVALID,163.617,VALID,0,VALID,25.785,VALID,261,VALID,0,
2011-06-13, 02:21:05,VALID,1003.03,VALID,0,INVALID,163.617,VALID,0,VALID,25.8064,VALID,277,VALID,0,
2011-06-13, 02:22:05,VALID,1003.05,VALID,0,INVALID,163.617,VALID,0,VALID,25.8453,VALID,243,VALID,0,
2011-06-13, 02:23:05,VALID,1003.01,VALID,0,INVALID,163.609,VALID,0,VALID,25.8453,VALID,262,VALID,0,
2011-06-13, 02:24:05,VALID,1003.06,VALID,0,INVALID,163.632,VALID,0,VALID,25.8843,VALID,297,VALID,0,
2011-06-13, 02:25:05,VALID,1003.04,VALID,0,INVALID,163.601,VALID,0,VALID,25.8843,VALID,316,VALID,0,
2011-06-13, 02:26:05,VALID,1003.04,VALID,0,INVALID,163.594,VALID,0,VALID,25.8823,VALID,278,VALID,0,
2011-06-13, 02:27:05,VALID,1003.04,VALID,0,INVALID,163.632,VALID,0,VALID,25.9038,VALID,304,VALID,0,
2011-06-13, 02:28:05,VALID,1003.05,VALID,0,INVALID,163.601,VALID,0,VALID,25.9232,VALID,297,VALID,0,
2011-06-13, 02:29:05,VALID,1003.03,VALID,0,INVALID,163.632,VALID,0,VALID,25.9427,VALID,265,VALID,0,
2011-06-13, 02:30:05,VALID,1003.09,VALID,0,INVALID,163.601,VALID,0,VALID,25.9232,VALID,255,VALID,0,
2011-06-13, 02:31:05,VALID,1003.03,VALID,0,INVALID,163.609,VALID,0,VALID,25.9427,VALID,359,VALID,0,
2011-06-13, 02:32:05,VALID,1003.02,VALID,0,INVALID,163.609,VALID,0,VALID,25.9642,VALID,254,VALID,0,
2011-06-13, 02:33:05,VALID,1003.04,VALID,0,INVALID,163.601,VALID,0,VALID,25.9836,VALID,237,VALID,0,
2011-06-13, 02:34:04,VALID,1003.04,VALID,0,INVALID,163.624,VALID,0,VALID,25.9622,VALID,295,VALID,0,
2011-06-13, 02:35:04,VALID,1003.04,VALID,0,INVALID,163.601,VALID,0,VALID,25.9642,VALID,290,VALID,0,
2011-06-13, 02:36:04,VALID,1002.99,VALID,0,INVALID,163.609,VALID,0,VALID,25.9817,VALID,266,VALID,0,
2011-06-13, 02:37:04,VALID,1003,VALID,0,INVALID,163.601,VALID,0,VALID,25.9817,VALID,289,VALID,0,
2011-06-13, 02:38:04,VALID,1002.98,VALID,0,INVALID,163.617,VALID,0,VALID,25.9622,VALID,220,VALID,0,
2011-06-13, 02:39:04,VALID,1002.96,VALID,0,INVALID,163.617,VALID,0,VALID,25.9427,VALID,265,VALID,0,
2011-06-13, 02:40:04,VALID,1002.93,VALID,0,INVALID,163.617,VALID,0,VALID,25.9232,VALID,260,VALID,0,
2011-06-13, 02:41:04,VALID,1002.94,VALID,0,INVALID,163.609,VALID,0,VALID,25.9427,VALID,220,VALID,0,
2011-06-13, 02:42:04,VALID,1002.9,VALID,0,INVALID,163.594,VALID,0,VALID,25.9213,VALID,202,VALID,0,
2011-06-13, 02:43:04,VALID,1002.89,VALID,0,INVALID,163.609,VALID,0,VALID,25.9447,VALID,267,VALID,0,
2011-06-13, 02:44:04,VALID,1002.89,VALID,0,INVALID,163.83,VALID,0,VALID,25.8823,VALID,222,VALID,0,
2011-06-13, 02:45:04,VALID,1002.85,VALID,0,INVALID,163.617,VALID,0,VALID,25.9038,VALID,233,VALID,0,
2011-06-13, 02:46:04,VALID,1002.85,VALID,0,INVALID,163.578,VALID,0,VALID,25.9038,VALID,255,VALID,0,
2011-06-13, 02:47:04,VALID,1002.81,VALID,0,INVALID,163.594,VALID,0,VALID,25.9252,VALID,238,VALID,0,
2011-06-13, 02:48:04,VALID,1002.81,VALID,0,INVALID,163.594,VALID,0,VALID,25.9018,VALID,288,VALID,0,
2011-06-13, 02:49:04,VALID,1002.83,VALID,0,INVALID,163.601,VALID,0,VALID,25.9427,VALID,249,VALID,0,
2011-06-13, 02:50:04,VALID,1002.81,VALID,0,INVALID,163.624,VALID,0,VALID,25.9622,VALID,350,VALID,0,
2011-06-13, 02:51:04,VALID,1002.82,VALID,0,INVALID,163.609,VALID,0,VALID,25.9622,VALID,281,VALID,0,
2011-06-13, 02:52:04,VALID,1002.8,VALID,0,INVALID,163.601,VALID,0,VALID,25.9622,VALID,307,VALID,0,
2011-06-13, 02:53:04,VALID,1002.78,VALID,0,INVALID,163.639,VALID,0,VALID,25.9622,VALID,288,VALID,0,
2011-06-13, 02:54:04,VALID,1002.8,VALID,0,INVALID,163.578,VALID,0,VALID,25.9622,VALID,324,VALID,0,
2011-06-13, 02:55:04,VALID,1002.78,VALID,0,INVALID,163.617,VALID,0,VALID,25.9817,VALID,245,VALID,0,
2011-06-13, 02:56:04,VALID,1002.76,VALID,0,INVALID,163.617,VALID,0,VALID,25.9817,VALID,222,VALID,0,
2011-06-13, 02:57:04,VALID,1002.75,VALID,0,INVALID,163.594,VALID,0,VALID,25.9817,VALID,234,VALID,0,
2011-06-13, 02:58:04,VALID,1002.74,VALID,0,INVALID,163.594,VALID,0,VALID,26.0226,VALID,241,VALID,0,
2011-06-13, 02:59:04,VALID,1002.77,VALID,0,INVALID,163.838,VALID,0,VALID,26.0226,VALID,283,VALID,0,
2011-06-13, 03:00:04,VALID,1002.76,VALID,0,INVALID,163.594,VALID,0,VALID,26.0226,VALID,265,VALID,0,
2011-06-13, 03:01:04,VALID,1002.75,VALID,0,INVALID,163.594,VALID,0,VALID,25.9642,VALID,336,VALID,0,
2011-06-13, 03:02:04,VALID,1002.72,VALID,0,INVALID,163.617,VALID,0,VALID,25.8843,VALID,245,VALID,0,
2011-06-13, 03:03:04,VALID,1002.72,VALID,0,INVALID,163.624,VALID,0,VALID,25.8259,VALID,261,VALID,0,
2011-06-13, 03:04:04,VALID,1002.69,VALID,0,INVALID,163.617,VALID,0,VALID,25.746,VALID,226,VALID,0,
2011-06-13, 03:05:04,VALID,1002.68,VALID,0,INVALID,163.609,VALID,0,VALID,25.7499,VALID,275,VALID,0,
2011-06-13, 03:06:04,VALID,1002.66,VALID,0,INVALID,163.586,VALID,0,VALID,25.7304,VALID,284,VALID,0,
2011-06-13, 03:07:04,VALID,1002.65,VALID,0,INVALID,163.617,VALID,0,VALID,25.6895,VALID,296,VALID,0,
2011-06-13, 03:08:04,VALID,1002.63,VALID,0,INVALID,163.639,VALID,0,VALID,25.7109,VALID,283,VALID,0,
2011-06-13, 03:09:04,VALID,1002.62,VALID,0,INVALID,163.624,VALID,0,VALID,25.67,VALID,190,VALID,0,
2011-06-13, 03:10:04,VALID,1002.58,VALID,0,INVALID,163.639,VALID,0,VALID,25.67,VALID,272,VALID,0,
2011-06-13, 03:11:04,VALID,1002.54,VALID,0,INVALID,163.617,VALID,0,VALID,25.67,VALID,288,VALID,0,
2011-06-13, 03:12:04,VALID,1002.53,VALID,0,INVALID,163.632,VALID,0,VALID,25.6311,VALID,297,VALID,0,
2011-06-13, 03:13:04,VALID,1002.52,VALID,0,INVALID,163.617,VALID,0,VALID,25.6116,VALID,309,VALID,0,
2011-06-13, 03:14:04,VALID,1002.5,VALID,0,INVALID,163.876,VALID,0,VALID,25.6136,VALID,272,VALID,0,
2011-06-13, 03:15:04,VALID,1002.49,VALID,0,INVALID,163.632,VALID,0,VALID,25.5142,VALID,334,VALID,0,
2011-06-13, 03:16:04,VALID,1002.48,VALID,0,INVALID,163.647,VALID,0,VALID,25.5162,VALID,324,VALID,0,
2011-06-13, 03:17:04,VALID,1002.49,VALID,0,INVALID,163.639,VALID,0,VALID,25.4772,VALID,322,VALID,0,
2011-06-13, 03:18:04,VALID,1002.43,VALID,0,INVALID,163.639,VALID,0,VALID,25.4383,VALID,308,VALID,0,
2011-06-13, 03:19:04,VALID,1002.41,VALID,0,INVALID,163.647,VALID,0,VALID,25.4577,VALID,1,VALID,0,
2011-06-13, 03:20:04,VALID,1002.37,VALID,0,INVALID,163.647,VALID,0,VALID,25.3974,VALID,248,VALID,0,
2011-06-13, 03:21:04,VALID,1002.39,VALID,0,INVALID,163.67,VALID,0,VALID,25.3779,VALID,358,VALID,0,
2011-06-13, 03:22:04,VALID,1002.35,VALID,0,INVALID,163.655,VALID,0,VALID,25.3604,VALID,4,VALID,0,
2011-06-13, 03:23:04,VALID,1002.35,VALID,0,INVALID,163.632,VALID,0,VALID,25.3214,VALID,283,VALID,0,
2011-06-13, 03:24:04,VALID,1002.34,VALID,0,INVALID,163.647,VALID,0,VALID,25.2806,VALID,282,VALID,0,
2011-06-13, 03:25:04,VALID,1002.3,VALID,0,INVALID,163.632,VALID,0,VALID,25.2611,VALID,352,VALID,0,
2011-06-13, 03:26:04,VALID,1002.31,VALID,0,INVALID,163.647,VALID,0,VALID,25.2416,VALID,286,VALID,0,
2011-06-13, 03:27:04,VALID,1002.28,VALID,0,INVALID,163.655,VALID,0,VALID,25.2611,VALID,285,VALID,0,
2011-06-13, 03:28:04,VALID,1002.28,VALID,0,INVALID,163.685,VALID,0,VALID,25.2611,VALID,340,VALID,0,
2011-06-13, 03:29:04,VALID,1002.27,VALID,0,INVALID,163.868,VALID,0,VALID,25.2221,VALID,326,VALID,0,
2011-06-13, 03:30:04,VALID,1002.26,VALID,0,INVALID,163.617,VALID,0,VALID,25.224,VALID,290,VALID,0,
2011-06-13, 03:31:04,VALID,1002.23,VALID,0,INVALID,163.67,VALID,0,VALID,25.224,VALID,292,VALID,0,
2011-06-13, 03:32:04,VALID,1002.21,VALID,0,INVALID,163.662,VALID,0,VALID,25.224,VALID,292,VALID,0,
2011-06-13, 03:33:04,VALID,1002.22,VALID,0,INVALID,163.639,VALID,0,VALID,25.2027,VALID,287,VALID,0,
2011-06-13, 03:34:04,VALID,1002.2,VALID,0,INVALID,163.662,VALID,0,VALID,25.1832,VALID,279,VALID,0,
2011-06-13, 03:35:04,VALID,1002.16,VALID,0,INVALID,163.655,VALID,0,VALID,25.1618,VALID,339,VALID,0,
2011-06-13, 03:36:04,VALID,1002.16,VALID,0,INVALID,163.624,VALID,0,VALID,25.1618,VALID,358,VALID,0,
2011-06-13, 03:37:04,VALID,1002.16,VALID,0,INVALID,163.662,VALID,0,VALID,25.224,VALID,332,VALID,0,
2011-06-13, 03:38:04,VALID,1002.12,VALID,0,INVALID,163.67,VALID,0,VALID,25.2046,VALID,284,VALID,0,
2011-06-13, 03:39:04,VALID,1002.1,VALID,0,INVALID,163.662,VALID,0,VALID,25.1637,VALID,307,VALID,0,
2011-06-13, 03:40:04,VALID,1002.12,VALID,0,INVALID,163.632,VALID,0,VALID,25.1832,VALID,299,VALID,0,
2011-06-13, 03:41:04,VALID,1002.08,VALID,0,INVALID,163.662,VALID,0,VALID,25.2027,VALID,276,VALID,0,
2011-06-13, 03:42:04,VALID,1002.07,VALID,0,INVALID,163.647,VALID,0,VALID,25.2046,VALID,276,VALID,0,
2011-06-13, 03:43:04,VALID,1002.08,VALID,0,INVALID,163.67,VALID,0,VALID,25.1832,VALID,276,VALID,0,
2011-06-13, 03:44:04,VALID,1002.05,VALID,0,INVALID,163.845,VALID,0,VALID,25.1851,VALID,340,VALID,0,
2011-06-13, 03:45:04,VALID,1002.02,VALID,0,INVALID,163.678,VALID,0,VALID,25.1248,VALID,336,VALID,0,
2011-06-13, 03:46:04,VALID,1002.06,VALID,0,INVALID,163.647,VALID,0,VALID,25.1267,VALID,278,VALID,0,
2011-06-13, 03:47:04,VALID,1002.06,VALID,0,INVALID,163.678,VALID,0,VALID,25.1053,VALID,9,VALID,0,
2011-06-13, 03:48:04,VALID,1002.06,VALID,0,INVALID,163.693,VALID,0,VALID,25.0858,VALID,353,VALID,0,
2011-06-13, 03:49:04,VALID,1002.05,VALID,0,INVALID,163.647,VALID,0,VALID,25.0877,VALID,4,VALID,0,
2011-06-13, 03:50:04,VALID,1002.05,VALID,0,INVALID,163.662,VALID,0,VALID,25.0469,VALID,305,VALID,0,
2011-06-13, 03:51:04,VALID,1002.04,VALID,0,INVALID,163.678,VALID,0,VALID,25.0682,VALID,294,VALID,0,
2011-06-13, 03:52:04,VALID,1002.06,VALID,0,INVALID,163.647,VALID,0,VALID,25.0274,VALID,301,VALID,0,
2011-06-13, 03:53:04,VALID,1002.05,VALID,0,INVALID,163.632,VALID,0,VALID,25.0682,VALID,329,VALID,0,
2011-06-13, 03:54:04,VALID,1002.04,VALID,0,INVALID,163.67,VALID,0,VALID,25.0488,VALID,298,VALID,0,
2011-06-13, 03:55:04,VALID,1002.03,VALID,0,INVALID,163.624,VALID,0,VALID,25.0274,VALID,282,VALID,0,